Location: Zapote
(9.9191°N, 84.0597°W)
Time: 03:12:23
(UTC-06:00)

N. Korean satellite - Pass Details

Date: 01 February 2021
Orbit: 451 x 503 km, 97.2° (Epoch: 27 February)

Event Time Altitude Azimuth Distance (km) Brightness Sun altitude
Rises 05:10:15 0° 355° (N) 2,445 9.9 -12.3°
Reaches altitude 10° 05:12:26 10° 343° (NNW) 1,575 8.8 -11.7°
Maximum altitude 05:15:22 28° 282° (WNW) 874 7.3 -11.0°
Drops below altitude 10° 05:18:20 10° 221° (SW) 1,584 8.9 -10.3°
Sets 05:20:33 0° 209° (SSW) 2,463 10.0 -9.8°
